FO-29
1 24278U 96046B 14184.11685331 .00000015 00000-0 53923-4 0 4104
2 24278 098.5118 195.7784 0349507 256.2467 143.0309 13.53025211882829
SO-33
1 25509U 98061B 14184.07035277 .00000079 00000-0 11859-5 0 7841
2 25509 031.4352 070.3857 0349708 253.5202 254.6934 14.29555271819429
RS-22
1 27939U 03042A 14185.03235825 .00000433 00000-0 88560-4 0 6365
2 27939 097.8107 358.3404 0014431 056.4027 303.8530 14.65227795575195
VO-52
1 28650U 05017B 14184.58915814 .00001313 00000-0 15693-3 0 7817
2 28650 097.5598 188.7348 0026756 104.0715 256.3478 14.85535304495662
HO-68
1 36122U 09072B 14185.05949935 -.00000043 00000-0 00000 0 0 7338
2 36122 100.2487 236.4222 0007482 195.6679 164.4203 13.16316567218654
AO-73
1 39444U 13066AE 14184.33292887 .00001088 00000-0 15209-3 0 1843
2 39444 097.7708 254.4350 0061535 189.7615 170.2506 14.78342576 31859
EO-79
1 40025U 14033R 14185.19519029 .00000962 00000-0 11863-3 0 335
2 40025 097.9833 079.8540 0011681 242.5121 117.4932 14.85210134 2119
UO-11
1 14781U 84021B 14184.24033761 .00000645 00000-0 88643-4 0 5354
2 14781 097.8517 244.0541 0010140 126.0736 234.1418 14.81626740630349
AO-16
1 20439U 90005D 14183.81703367 .00000077 00000-0 44311-4 0 581
2 20439 098.5068 120.8591 0012108 112.1425 301.3764 14.32363381276722
LO-19
1 20442U 90005G 14184.06979789 .00000056 00000-0 36385-4 0 9966
2 20442 098.4777 121.7140 0013098 101.6943 258.5711 14.32565378276959
AO-27
1 22825U 93061C 14184.44352262 .00000066 00000-0 42890-4 0 7058
2 22825 098.6622 130.4379 0007428 246.0159 258.3481 14.29725985 83104
IO-26
1 22826U 93061D 14184.82719428 .00000051 00000-0 36748-4 0 4621
2 22826 098.6566 131.0362 0008064 236.6762 123.3648 14.30027411 83290
GO-32
1 25397U 98043D 14184.48111160 .00000020 00000-0 27193-4 0 3846
2 25397 098.4691 141.8620 0000384 187.5366 296.0194 14.23448580830188
NO-44
1 26931U 01043C 14185.10912354 .00000052 00000-0 52018-4 0 6403
2 26931 067.0527 354.8189 0006621 281.6277 078.4081 14.30125781666026
SO-50
1 27607U 02058C 14184.16665070 .00000543 00000-0 10231-3 0 4353
2 27607 064.5554 183.6349 0049575 005.9745 354.1936 14.73793805619832
CO-55
1 27844U 03031E 14184.82597341 .00000158 00000-0 92312-4 0 9624
2 27844 098.6977 193.3575 0009056 220.8330 263.8783 14.21518868570940
CO-57
1 27848U 03031J 14184.55310464 .00000138 00000-0 83726-4 0 9028
2 27848 098.7072 192.8084 0008859 228.8565 257.0828 14.21204353570821
AO-51
1 28375U 04025K 14184.44987355 .00000144 00000-0 55944-4 0 8785
2 28375 098.2505 130.8060 0081844 303.6125 055.7273 14.41396787526247
CP3
1 31129U 07012N 14184.47515766 .00000795 00000-0 18491-3 0 7866
2 31129 097.9342 161.6320 0097166 320.8236 154.7694 14.54723711382402
CO-65
1 32785U 08021C 14184.12857267 .00001049 00000-0 12787-3 0 9916
2 32785 097.6987 234.9011 0015229 133.9585 278.9630 14.85338685334394
PRISM
1 33493U 09002B 14185.07520991 .00002290 00000-0 24600-3 0 679
2 33493 098.2498 001.4431 0018475 033.6675 326.5706 14.89518536294691
SOHLA-1
1 33496U 09002E 14184.93787345 .00000314 00000-0 59618-4 0 3928
2 33496 098.1717 305.9108 0006700 178.3953 321.4722 14.70825289291970
TISAT-1
1 36799U 10035E 14185.19041925 .00001510 00000-0 18028-3 0 3299
2 36799 098.0170 277.3138 0012061 265.2211 094.7658 14.85718805215241
STUDSAT
1 36801U 10035G 14184.37419407 .00010735 00000-0 93934-3 0 8480
2 36801 098.0371 284.8523 0007843 228.5796 171.5303 14.96893150215555
ALMASAT-1
1 38078U 12006B 14184.23012971 .00028466 00000-0 59051-3 0 729
2 38078 069.4687 020.5741 0590271 010.4085 092.6472 14.50939760123964
XATCOBEO
1 38082U 12006F 14185.24797713 .00227614 18127-4 10749-2 0 3676
2 38082 069.4366 267.6393 0185192 307.1561 083.3111 15.61854043127051
CUBEBUG-1
1 39153U 13018D 14185.15011244 .00000708 00000-0 10588-3 0 2624
2 39153 098.0438 265.4203 0016763 298.7712 061.1860 14.77746222 64066
ESTCUBE-1
1 39161U 13021C 14185.17133034 .00000575 00000-0 10408-3 0 2523
2 39161 098.0965 265.9429 0009585 351.8418 008.2673 14.70023597 62094
DUCHIFAT-1
1 40021U 14033M 14185.53109901 .00001344 00000-0 16269-3 0 344
2 40021 097.9846 080.1964 0012462 240.9550 119.0435 14.85311333 2153
NANOSATCBR1
1 40024U 14033Q 14185.12773027 .00001204 00000-0 14681-3 0 316
2 40024 097.9823 079.7852 0011576 242.4496 117.5590 14.85222394 2098
DTUSAT-2
1 40030U 14033W 14185.13136204 .00000925 00000-0 11524-3 0 349
2 40030 097.9806 079.7792 0011120 233.6791 126.3416 14.84843277 2109
ANTELSAT
1 40034U 14033AA 14185.19594503 .00000690 00000-0 11688-3 0 282
2 40034 097.9789 079.5414 0061717 151.4440 209.0206 14.71183126 2109
MET-2/21
1 22782U 93055A 14184.49424941 .00000058 00000-0 38963-4 0 995
2 22782 082.5493 160.3663 0021609 216.1344 262.2497 13.83738409 52373
OKEAN-4
1 23317U 94066A 14185.13253432 .00000740 00000-0 82450-4 0 5779
2 23317 082.5376 052.0478 0021478 046.8538 069.0208 14.85562178 65622
NOAA-14
1 23455U 94089A 14184.34540998 .00000020 00000-0 33312-4 0 8097
2 23455 098.7781 267.4949 0009098 000.2503 048.1486 14.13977352 6232
NOAA-15
1 25338U 98030A 14184.48762759 .00000213 00000-0 10883-3 0 2450
2 25338 098.7526 178.3146 0011861 101.2448 050.5353 14.25437641839162
RESURS
1 25394U 98043A 14184.94366358 -.00000031 00000-0 44808-5 0 6956
2 25394 098.4134 148.6103 0001442 162.5878 265.8745 14.24395326830709
FENGYUN1
1 25730U 99025A 14184.50269424 .00000911 00000-0 52078-3 0 1833
2 25730 098.9130 145.4937 0026646 065.6498 050.8188 14.11934644779824
OKEAN-0
1 25860U 99039A 14184.79047808 .00000367 00000-0 61738-4 0 2923
2 25860 098.0433 148.5576 0001475 081.3859 338.6472 14.75297446804607
NOAA-16
1 26536U 00055A 14184.29666197 .00000064 00000-0 58402-4 0 7425
2 26536 098.9893 244.7303 0011644 136.9560 223.2525 14.13074138710381
NOAA-17
1 27453U 02032A 14184.48599858 .00000078 00000-0 51013-4 0 6415
2 27453 098.3141 183.3404 0012895 124.2651 235.9752 14.24753684625008
NOAA-18
1 28654U 05018A 14184.48892116 .00000077 00000-0 67295-4 0 1423
2 28654 099.1485 164.3163 0013802 214.6723 304.3297 14.12034393469867
NOAA-19
1 33591U 09005A 14184.44660627 .00000033 00000-0 42547-4 0 2937
2 33591 098.9448 129.4356 0015152 075.5751 062.4414 14.11732155278287
HUBBLE
1 20580U 90037B 14184.50351946 .00001654 00000-0 10041-3 0 474
2 20580 028.4695 289.8694 0003323 095.8067 004.2465 15.05495768127172
ISS
1 25544U 98067A 14185.56393490 .00008057 00000-0 14697-3 0 6287
2 25544 051.6482 013.4254 0003568 206.8812 202.4858 15.50393805894027
CO-58
1 28895U 05043F 14184.50009634 .00000638 00000-0 13615-3 0 8095
2 28895 097.8344 025.5205 0016213 322.6475 037.3599 14.61914786462634
FALCON
1 30776U 07006E 14184.97514699 .00007366 00000-0 37213-3 0 9030
2 30776 035.4296 009.7989 0000928 071.5082 059.6756 15.16458464403287
MAST
1 31126U 07012K 14184.90915557 .00000412 00000-0 10032-3 0 843
2 31126 097.9146 164.9312 0090649 302.5468 108.9392 14.55304655382826
CAPE1
1 31130U 07012P 14184.92820361 .00000642 00000-0 15191-3 0 912
2 31130 097.9356 161.6229 0097819 320.7849 038.6289 14.54477035382248
COMPASS
1 32787U 08021E 14185.11292394 .00002606 00000-0 28938-3 0 9748
2 32787 097.7008 238.1590 0015325 123.4263 236.8422 14.87976986334704
AAUSAT2
1 32788U 08021F 14184.70571568 .00002255 00000-0 24681-3 0 9590
2 32788 097.7020 238.7709 0014859 122.7737 237.4914 14.88693271334703
DO-64
1 32789U 08021G 14184.16117682 .00005318 00000-0 50938-3 0 9995
2 32789 097.7197 244.8963 0013628 111.8604 304.3267 14.93514148334889
CO-66
1 32791U 08021J 14184.14235989 .00001309 00000-0 15320-3 0 9562
2 32791 097.7007 235.9490 0015989 130.2216 230.0401 14.86623482334423
